Weather History for Gillette, WY

Change the Weather History Date:

Sunday, October 28, 2012

  Actual Average Record
Temperature  
Mean Temperature 46 °F 41 °F  
Max Temperature 61 °F 54 °F 78 °F (1937)
Min Temperature 30 °F 28 °F -12 °F (1925)
Degree Days  
Heating Degree Days 19 24  
Month to date heating degree days 594 541  
Since 1 July heating degree days 752 836  
Cooling Degree Days 0 0  
Month to date cooling degree days 0 0  
Year to date cooling degree days 795 500  
Moisture  
Dew Point 29 °F    
Average Humidity 57    
Maximum Humidity 82    
Minimum Humidity 32    
Precipitation  
Precipitation 0.00 in 0.03 in 1.30 in (1998)
Month to date precipitation 0.89 1.20  
Year to date precipitation 8.47 12.87  
Sea Level Pressure  
Sea Level Pressure 29.97 in    
Wind  
Wind Speed 9 mph (South)    
Max Wind Speed 17 mph    
Max Gust Speed 23 mph    
Visibility 10 miles    
Events      
T = Trace of Precipitation, MM = Missing Value Source: NWS Daily Summary

Daily Weather History Graph

Daily Weather History Graph

Search for Another Location

Airport:

Trip Planner

Search our weather history database for the weather conditions in past years. The results will help you decide how hot, cold, wet, or windy it might be!

Date:

Astronomy

Oct. 28, 2012 Rise Set
Actual Time 7:34 AM MDT 5:56 PM MDT
Civil Twilight 7:04 AM MDT 6:26 PM MDT
Nautical Twilight 6:30 AM MDT 7:00 PM MDT
Astronomical Twilight 5:56 AM MDT 7:34 PM MDT
Moon 5:15 PM MDT (10/28) 6:29 AM MDT (10/28)
Length of Visible Light 11h 21m
Length of Day
10h 21m
Waxing Gibbous, 99% of the Moon is Illuminated
Oct 28
Waxing Gibbous
Oct 29
Full
Nov 6
Last Quarter
Nov 13
New
Nov 20
First Quarter

Hourly Weather History & Observations

Time (MDT) Temp. Windchill Dew Point Humidity Pressure Visibility Wind Dir Wind Speed Gust Speed Precip Events Conditions
12:53 AM 33.1 °F 24.9 °F 24.1 °F 70% 30.07 in 10.0 mi South 10.4 mph - N/A   Clear
1:53 AM 30.0 °F 21.1 °F 24.1 °F 79% 30.06 in 10.0 mi South 10.4 mph - N/A   Clear
2:53 AM 30.9 °F 22.2 °F 24.1 °F 76% 30.04 in 10.0 mi South 10.4 mph - N/A   Clear
3:53 AM 32.0 °F 24.2 °F 25.0 °F 75% 30.03 in 10.0 mi South 9.2 mph - N/A   Overcast
4:53 AM 32.0 °F 22.1 °F 26.1 °F 79% 30.01 in 10.0 mi South 13.8 mph - N/A   Overcast
5:53 AM 30.9 °F 21.7 °F 25.0 °F 79% 30.02 in 10.0 mi SSE 11.5 mph - N/A   Scattered Clouds
6:53 AM 30.0 °F 23.2 °F 25.0 °F 82% 30.02 in 10.0 mi SSE 6.9 mph - N/A   Clear
7:53 AM 32.0 °F 22.5 °F 27.0 °F 82% 30.03 in 10.0 mi South 12.7 mph - N/A   Clear
8:53 AM 34.0 °F 26.0 °F 28.0 °F 79% 30.00 in 10.0 mi South 10.4 mph - N/A   Mostly Cloudy
9:53 AM 39.0 °F 30.3 °F 28.0 °F 65% 29.98 in 10.0 mi South 16.1 mph - N/A   Overcast
10:53 AM 45.0 °F 38.9 °F 28.9 °F 53% 29.94 in 10.0 mi SSW 12.7 mph - N/A   Overcast
11:53 AM 51.1 °F - 30.9 °F 46% 29.92 in 10.0 mi SSW 9.2 mph - N/A   Overcast
12:53 PM 55.0 °F - 30.0 °F 38% 29.88 in 10.0 mi SW 11.5 mph - N/A   Overcast
1:53 PM 57.9 °F - 30.0 °F 35% 29.87 in 10.0 mi West 10.4 mph - N/A   Mostly Cloudy
2:53 PM 60.1 °F - 30.9 °F 33% 29.86 in 10.0 mi NW 11.5 mph 21.9 mph N/A   Mostly Cloudy
3:53 PM 57.9 °F - 32.0 °F 37% 29.88 in 10.0 mi North 10.4 mph - N/A   Scattered Clouds
4:53 PM 55.9 °F - 32.0 °F 40% 29.91 in 10.0 mi North 5.8 mph - N/A   Overcast
5:53 PM 51.1 °F - 34.0 °F 52% 29.93 in 10.0 mi Calm Calm - N/A   Overcast
6:53 PM 43.0 °F 39.5 °F 34.0 °F 71% 29.97 in 10.0 mi South 5.8 mph - N/A   Mostly Cloudy
7:53 PM 39.9 °F 35.1 °F 33.1 °F 77% 29.98 in 10.0 mi South 6.9 mph - N/A   Clear
8:53 PM 39.0 °F 33.4 °F 32.0 °F 76% 29.99 in 10.0 mi South 8.1 mph - N/A   Clear
9:53 PM 39.0 °F 32.8 °F 33.1 °F 79% 29.98 in 10.0 mi South 9.2 mph - N/A   Clear
10:53 PM 41.0 °F 36.4 °F 33.1 °F 73% 29.96 in 10.0 mi SSE 6.9 mph - N/A   Clear
11:53 PM 39.0 °F 33.4 °F 32.0 °F 76% 29.94 in 10.0 mi South 8.1 mph - N/A   Clear